User: anonymous   Login
Location: ??????
(55.6500°N, 37.8000°E)
Time: 03:17:10
(UTC+00:00)
Language:

ALOS - Orbit

View from above orbital plane
View from above orbital plane
View from above satellite
View from above satellite

Ground track
Ground track

The orbit data is extracted from the following two-line orbital elements,

1 28931U 06002A   24167.92835318  .00002397  00000-0  44770-3 0  9996
2 28931  98.0361 121.0130 0002268 110.0831 250.0617 14.65830595980792
Epoch (UTC): 15 June 2024 22:16:49
Eccentricity: 0.0002268
inclination: 98.0361°
perigee height: 673 km
apogee height: 676 km
right ascension of ascending node: 121.0130°
argument of perigee: 110.0831°
revolutions per day: 14.65830595
mean anomaly at epoch: 250.0617°
orbit number at epoch: 98079

The dashed part of the orbit path shows where the satellite is in the earth's shadow,  

DLR